Time,TemperatureF,DewpointF,PressureIn,WindDirection,WindDirectionDegrees,WindSpeedMPH,WindSpeedGustMPH,Humidity,HourlyPrecipIn,Conditions,Clouds,dailyrainin,SoftwareType,DateUTC
2013-03-03 00:01:00,2.6,-0.6,30.23,NE,41,0.0,0.0,86,0.00,,---,0.01,VWS V14.00,2013-03-03 06:01:00,
2013-03-03 00:06:00,2.4,-1.1,30.23,NE,41,0.0,0.0,85,0.00,,---,0.00,VWS V14.00,2013-03-03 06:06:00,
2013-03-03 00:11:00,2.1,-1.4,30.23,NE,41,0.0,0.0,85,0.00,,---,0.00,VWS V14.00,2013-03-03 06:11:00,
2013-03-03 00:16:00,1.8,-1.9,30.23,NE,41,0.0,0.0,84,0.00,,---,0.00,VWS V14.00,2013-03-03 06:16:00,
2013-03-03 00:21:00,1.5,-2.0,30.23,NE,41,0.0,0.0,85,0.00,,---,0.00,VWS V14.00,2013-03-03 06:21:00,
2013-03-03 00:26:00,1.2,-2.5,30.23,NE,41,0.0,0.0,84,0.00,,---,0.00,VWS V14.00,2013-03-03 06:26:00,
2013-03-03 00:31:00,0.9,-2.8,30.23,NE,41,0.0,0.0,84,0.00,,---,0.00,VWS V14.00,2013-03-03 06:31:00,
2013-03-03 00:36:00,0.6,-3.1,30.23,NE,41,0.0,0.0,84,0.00,,---,0.00,VWS V14.00,2013-03-03 06:36:00,
2013-03-03 00:41:00,0.3,-3.4,30.23,NE,41,0.0,0.0,84,0.00,,---,0.00,VWS V14.00,2013-03-03 06:41:00,
2013-03-03 00:46:00,0.2,-3.2,30.23,NE,41,0.0,0.0,85,0.00,,---,0.00,VWS V14.00,2013-03-03 06:46:00,
2013-03-03 00:51:00,0.1,-3.3,30.23,NE,41,0.0,0.0,85,0.00,,---,0.00,VWS V14.00,2013-03-03 06:51:00,
2013-03-03 00:56:00,-0.1,-3.5,30.23,NE,41,0.0,0.0,85,0.00,,---,0.00,VWS V14.00,2013-03-03 06:56:00,
2013-03-03 01:01:00,-0.3,-3.7,30.23,NE,41,0.0,0.0,85,0.00,,---,0.00,VWS V14.00,2013-03-03 07:01:00,
2013-03-03 01:06:00,-0.5,-3.9,30.22,NE,41,0.0,0.0,85,0.00,,---,0.00,VWS V14.00,2013-03-03 07:06:00,
2013-03-03 01:11:00,-0.6,-4.0,30.22,NE,41,0.0,0.0,85,0.00,,---,0.00,VWS V14.00,2013-03-03 07:11:00,
2013-03-03 01:16:00,-0.6,-3.8,30.22,NE,41,0.0,0.0,86,0.00,,---,0.00,VWS V14.00,2013-03-03 07:16:00,
2013-03-03 01:21:00,-0.8,-4.2,30.22,NE,41,0.0,0.0,85,0.00,,---,0.00,VWS V14.00,2013-03-03 07:21:00,
2013-03-03 01:26:00,-1.1,-4.8,30.23,NE,41,0.0,0.0,84,0.00,,---,0.00,VWS V14.00,2013-03-03 07:26:00,
2013-03-03 01:31:00,-1.3,-4.9,30.22,NE,41,0.0,0.0,84,0.00,,---,0.00,VWS V14.00,2013-03-03 07:31:00,
2013-03-03 01:36:00,-1.5,-5.2,30.22,NE,41,0.0,0.0,84,0.00,,---,0.00,VWS V14.00,2013-03-03 07:36:00,
2013-03-03 01:41:00,-1.7,-5.3,30.22,NE,41,0.0,0.0,84,0.00,,---,0.00,VWS V14.00,2013-03-03 07:41:00,
2013-03-03 01:46:00,-1.9,-5.5,30.22,NE,41,0.0,0.0,84,0.00,,---,0.00,VWS V14.00,2013-03-03 07:46:00,
2013-03-03 01:51:00,-2.1,-5.7,30.22,NE,41,0.0,0.0,84,0.00,,---,0.00,VWS V14.00,2013-03-03 07:51:00,
2013-03-03 01:56:00,-2.3,-5.9,30.22,NE,41,0.0,0.0,84,0.00,,---,0.00,VWS V14.00,2013-03-03 07:56:00,
2013-03-03 02:01:00,-2.5,-6.4,30.21,NE,41,0.0,0.0,83,0.00,,---,0.00,VWS V14.00,2013-03-03 08:01:00,
2013-03-03 02:06:00,-2.7,-6.3,30.22,NE,41,0.0,0.0,84,0.00,,---,0.00,VWS V14.00,2013-03-03 08:06:00,
2013-03-03 02:11:00,-2.9,-6.5,30.22,NE,41,0.0,0.0,84,0.00,,---,0.00,VWS V14.00,2013-03-03 08:11:00,
2013-03-03 02:16:00,-3.0,-6.9,30.22,NE,41,0.0,0.0,83,0.00,,---,0.00,VWS V14.00,2013-03-03 08:16:00,
2013-03-03 02:21:00,-3.2,-7.1,30.22,NE,41,0.0,0.0,83,0.00,,---,0.00,VWS V14.00,2013-03-03 08:21:00,
2013-03-03 02:26:00,-3.4,-7.3,30.22,NE,41,0.0,0.0,83,0.00,,---,0.00,VWS V14.00,2013-03-03 08:26:00,
2013-03-03 02:31:00,-3.6,-7.5,30.22,NE,41,0.0,0.0,83,0.00,,---,0.00,VWS V14.00,2013-03-03 08:31:00,
2013-03-03 02:36:00,-3.7,-7.6,30.21,NE,41,0.0,0.0,83,0.00,,---,0.00,VWS V14.00,2013-03-03 08:36:00,
2013-03-03 02:41:00,-3.8,-7.4,30.21,NE,41,0.0,0.0,84,0.00,,---,0.00,VWS V14.00,2013-03-03 08:41:00,
2013-03-03 02:46:00,-3.9,-7.5,30.21,NE,41,0.0,0.0,84,0.00,,---,0.00,VWS V14.00,2013-03-03 08:46:00,
2013-03-03 02:51:00,-4.0,-7.6,30.21,NE,41,0.0,0.0,84,0.00,,---,0.00,VWS V14.00,2013-03-03 08:51:00,
2013-03-03 02:56:00,-4.3,-8.1,30.21,NE,41,0.0,0.0,83,0.00,,---,0.00,VWS V14.00,2013-03-03 08:56:00,
2013-03-03 03:01:00,-4.4,-8.2,30.21,NE,41,0.0,0.0,83,0.00,,---,0.00,VWS V14.00,2013-03-03 09:01:00,
2013-03-03 03:06:00,-4.6,-8.4,30.21,NE,41,0.0,0.0,83,0.00,,---,0.00,VWS V14.00,2013-03-03 09:06:00,
2013-03-03 03:11:00,-4.9,-9.0,30.21,NE,41,0.0,0.0,82,0.00,,---,0.00,VWS V14.00,2013-03-03 09:11:00,
2013-03-03 03:16:00,-5.0,-8.8,30.21,NE,41,0.0,0.0,83,0.00,,---,0.00,VWS V14.00,2013-03-03 09:16:00,
2013-03-03 03:21:00,-5.2,-9.3,30.21,NE,41,0.0,0.0,82,0.00,,---,0.00,VWS V14.00,2013-03-03 09:21:00,
2013-03-03 03:26:00,-5.5,-9.6,30.21,NE,41,0.0,0.0,82,0.00,,---,0.00,VWS V14.00,2013-03-03 09:26:00,
2013-03-03 03:31:00,-5.7,-9.8,30.21,NE,41,0.0,0.0,82,0.00,,---,0.00,VWS V14.00,2013-03-03 09:31:00,
2013-03-03 03:36:00,-5.8,-9.6,30.21,NE,41,0.0,0.0,83,0.00,,---,0.00,VWS V14.00,2013-03-03 09:36:00,
2013-03-03 03:41:00,-5.9,-9.7,30.21,NE,41,0.0,0.0,83,0.00,,---,0.00,VWS V14.00,2013-03-03 09:41:00,
2013-03-03 03:46:00,-6.0,-9.8,30.22,NE,41,0.0,0.0,83,0.00,,---,0.00,VWS V14.00,2013-03-03 09:46:00,
2013-03-03 03:51:00,-6.1,-9.9,30.22,NE,41,0.0,0.0,83,0.00,,---,0.00,VWS V14.00,2013-03-03 09:51:00,
2013-03-03 03:56:00,-6.1,-9.9,30.22,NE,41,0.0,0.0,83,0.00,,---,0.00,VWS V14.00,2013-03-03 09:56:00,
2013-03-03 04:01:00,-6.2,-10.0,30.23,NE,41,0.0,0.0,83,0.00,,---,0.00,VWS V14.00,2013-03-03 10:01:00,
2013-03-03 04:06:00,-6.4,-10.4,30.23,NE,41,0.0,0.0,82,0.00,,---,0.00,VWS V14.00,2013-03-03 10:06:00,
2013-03-03 04:11:00,-6.6,-10.6,30.23,NE,41,0.0,0.0,82,0.00,,---,0.00,VWS V14.00,2013-03-03 10:11:00,
2013-03-03 04:16:00,-6.7,-10.7,30.23,NE,41,0.0,0.0,82,0.00,,---,0.00,VWS V14.00,2013-03-03 10:16:00,
2013-03-03 04:21:00,-6.7,-10.5,30.23,NE,41,0.0,0.0,83,0.00,,---,0.00,VWS V14.00,2013-03-03 10:21:00,
2013-03-03 04:25:00,-6.7,-10.5,30.23,NE,41,0.0,0.0,83,0.00,,---,0.00,VWS V14.00,2013-03-03 10:25:00,
2013-03-03 04:30:00,-7.1,-11.1,30.23,NE,41,0.0,0.0,82,0.00,,---,0.00,VWS V14.00,2013-03-03 10:30:00,
2013-03-03 04:35:00,-7.3,-11.3,30.23,NE,41,0.0,0.0,82,0.00,,---,0.00,VWS V14.00,2013-03-03 10:35:00,
2013-03-03 04:40:00,-7.3,-11.1,30.23,NE,41,0.0,0.0,83,0.00,,---,0.00,VWS V14.00,2013-03-03 10:40:00,
2013-03-03 04:45:00,-7.3,-11.1,30.22,NE,41,0.0,0.0,83,0.00,,---,0.00,VWS V14.00,2013-03-03 10:45:00,
2013-03-03 04:51:00,-7.3,-11.1,30.22,NE,41,0.0,0.0,83,0.00,,---,0.00,VWS V14.00,2013-03-03 10:51:00,
2013-03-03 04:56:00,-7.3,-11.1,30.22,NE,41,0.0,0.0,83,0.00,,---,0.00,VWS V14.00,2013-03-03 10:56:00,
2013-03-03 05:01:00,-7.4,-11.2,30.22,NE,41,0.0,0.0,83,0.00,,---,0.00,VWS V14.00,2013-03-03 11:01:00,
2013-03-03 05:06:00,-7.5,-11.5,30.22,NE,41,0.0,0.0,82,0.00,,---,0.00,VWS V14.00,2013-03-03 11:06:00,
2013-03-03 05:11:00,-7.7,-11.7,30.22,NE,41,0.0,0.0,82,0.00,,---,0.00,VWS V14.00,2013-03-03 11:11:00,
2013-03-03 05:15:00,-7.9,-11.9,30.22,NE,41,0.0,0.0,82,0.00,,---,0.00,VWS V14.00,2013-03-03 11:15:00,
2013-03-03 05:20:00,-7.9,-11.9,30.22,NE,41,0.0,0.0,82,0.00,,---,0.00,VWS V14.00,2013-03-03 11:20:00,
2013-03-03 05:25:00,-8.1,-12.1,30.22,NE,41,0.0,0.0,82,0.00,,---,0.00,VWS V14.00,2013-03-03 11:25:00,
2013-03-03 05:30:00,-8.1,-12.1,30.22,NE,41,0.0,0.0,82,0.00,,---,0.00,VWS V14.00,2013-03-03 11:30:00,
2013-03-03 05:35:00,-8.3,-12.3,30.22,NE,41,0.0,0.0,82,0.00,,---,0.00,VWS V14.00,2013-03-03 11:35:00,
2013-03-03 05:40:00,-8.4,-12.4,30.23,NE,41,0.0,0.0,82,0.00,,---,0.00,VWS V14.00,2013-03-03 11:40:00,
2013-03-03 05:45:00,-8.6,-12.6,30.23,NE,41,0.0,0.0,82,0.00,,---,0.00,VWS V14.00,2013-03-03 11:45:00,
2013-03-03 05:50:00,-8.8,-13.0,30.23,NE,41,0.0,0.0,81,0.00,,---,0.00,VWS V14.00,2013-03-03 11:50:00,
2013-03-03 05:55:00,-9.0,-13.2,30.23,NE,41,0.0,0.0,81,0.00,,---,0.00,VWS V14.00,2013-03-03 11:55:00,
2013-03-03 06:00:00,-9.2,-13.4,30.23,NE,41,0.0,0.0,81,0.00,,---,0.00,VWS V14.00,2013-03-03 12:00:00,
2013-03-03 06:05:00,-9.3,-13.5,30.23,NE,41,0.0,0.0,81,0.00,,---,0.00,VWS V14.00,2013-03-03 12:05:00,
2013-03-03 06:10:00,-9.5,-13.7,30.23,NE,41,0.0,0.0,81,0.00,,---,0.00,VWS V14.00,2013-03-03 12:10:00,
2013-03-03 06:15:00,-9.6,-13.8,30.23,NE,41,0.0,0.0,81,0.00,,---,0.00,VWS V14.00,2013-03-03 12:15:00,
2013-03-03 06:20:00,-9.8,-14.0,30.24,NE,41,0.0,0.0,81,0.00,,---,0.00,VWS V14.00,2013-03-03 12:20:00,
2013-03-03 06:25:00,-9.9,-14.1,30.24,NE,41,0.0,0.0,81,0.00,,---,0.00,VWS V14.00,2013-03-03 12:25:00,
2013-03-03 06:31:00,-9.9,-14.1,30.24,NE,41,0.0,0.0,81,0.00,,---,0.00,VWS V14.00,2013-03-03 12:31:00,
2013-03-03 06:36:00,-10.0,-14.2,30.24,NE,41,0.0,0.0,81,0.00,,---,0.00,VWS V14.00,2013-03-03 12:36:00,
2013-03-03 06:41:00,-10.0,-14.0,30.24,NE,41,0.0,0.0,82,0.00,,---,0.00,VWS V14.00,2013-03-03 12:41:00,
2013-03-03 06:45:00,-10.0,-14.0,30.24,NE,41,0.0,0.0,82,0.00,,---,0.00,VWS V14.00,2013-03-03 12:45:00,
2013-03-03 06:50:00,-9.9,-13.9,30.24,NE,41,0.0,0.0,82,0.00,,---,0.00,VWS V14.00,2013-03-03 12:50:00,
2013-03-03 06:55:00,-9.9,-13.9,30.24,NE,40,0.0,0.0,82,0.00,,---,0.00,VWS V14.00,2013-03-03 12:55:00,
2013-03-03 07:00:00,-9.9,-13.9,30.24,NE,41,0.0,0.0,82,0.00,,---,0.00,VWS V14.00,2013-03-03 13:00:00,
2013-03-03 07:05:00,-9.9,-13.9,30.24,NE,41,0.0,0.0,82,0.00,,---,0.00,VWS V14.00,2013-03-03 13:05:00,
2013-03-03 07:10:00,-9.9,-13.9,30.24,NE,41,0.0,0.0,82,0.00,,---,0.00,VWS V14.00,2013-03-03 13:10:00,
2013-03-03 07:15:00,-9.8,-13.8,30.24,NE,41,0.0,0.0,82,0.00,,---,0.00,VWS V14.00,2013-03-03 13:15:00,
2013-03-03 07:20:00,-9.8,-13.8,30.24,NE,41,0.0,0.0,82,0.00,,---,0.00,VWS V14.00,2013-03-03 13:20:00,
2013-03-03 07:25:00,-9.7,-13.7,30.24,NE,41,0.0,0.0,82,0.00,,---,0.00,VWS V14.00,2013-03-03 13:25:00,
2013-03-03 07:30:00,-9.5,-13.2,30.24,NE,41,0.0,0.0,83,0.00,,---,0.00,VWS V14.00,2013-03-03 13:30:00,
2013-03-03 07:35:00,-9.4,-13.1,30.23,NE,41,0.0,0.0,83,0.00,,---,0.00,VWS V14.00,2013-03-03 13:35:00,
2013-03-03 07:40:00,-9.3,-13.1,30.23,NE,41,0.0,0.0,83,0.00,,---,0.00,VWS V14.00,2013-03-03 13:40:00,
2013-03-03 07:45:00,-9.0,-12.8,30.23,NE,41,0.0,0.0,83,0.00,,---,0.00,VWS V14.00,2013-03-03 13:45:00,
2013-03-03 07:50:00,-8.7,-12.2,30.23,NE,41,0.0,0.0,84,0.00,,---,0.00,VWS V14.00,2013-03-03 13:50:00,
2013-03-03 07:55:00,-8.5,-12.0,30.23,NE,41,0.0,0.0,84,0.00,,---,0.00,VWS V14.00,2013-03-03 13:55:00,
2013-03-03 08:00:00,-8.2,-11.7,30.23,NE,41,0.0,0.0,84,0.00,,---,0.00,VWS V14.00,2013-03-03 14:00:00,
2013-03-03 08:05:00,-7.9,-11.4,30.23,NE,41,0.0,0.0,84,0.00,,---,0.00,VWS V14.00,2013-03-03 14:05:00,
2013-03-03 08:10:00,-7.4,-10.7,30.23,NE,41,0.0,0.0,85,0.00,,---,0.00,VWS V14.00,2013-03-03 14:10:00,
2013-03-03 08:15:00,-6.8,-9.9,30.23,NE,41,0.0,0.0,86,0.00,,---,0.00,VWS V14.00,2013-03-03 14:15:00,
2013-03-03 08:20:00,-5.9,-8.8,30.23,NE,41,0.0,0.0,87,0.00,,---,0.00,VWS V14.00,2013-03-03 14:20:00,
2013-03-03 08:25:00,-5.0,-7.9,30.24,NE,41,0.0,0.0,87,0.00,,---,0.00,VWS V14.00,2013-03-03 14:25:00,
2013-03-03 08:30:00,-4.3,-7.2,30.24,NE,41,0.0,0.0,87,0.00,,---,0.00,VWS V14.00,2013-03-03 14:30:00,
2013-03-03 08:35:00,-3.7,-6.6,30.24,NE,41,0.0,0.0,87,0.00,,---,0.00,VWS V14.00,2013-03-03 14:35:00,
2013-03-03 08:40:00,-3.1,-6.0,30.23,NE,41,0.0,0.0,87,0.00,,---,0.00,VWS V14.00,2013-03-03 14:40:00,
2013-03-03 08:45:00,-2.3,-5.0,30.23,NE,41,0.0,0.0,88,0.00,,---,0.00,VWS V14.00,2013-03-03 14:45:00,
2013-03-03 08:50:00,-1.3,-4.0,30.23,NE,41,0.0,0.0,88,0.00,,---,0.00,VWS V14.00,2013-03-03 14:50:00,
2013-03-03 08:55:00,-0.5,-3.2,30.23,NE,41,0.0,0.0,88,0.00,,---,0.00,VWS V14.00,2013-03-03 14:55:00,
2013-03-03 09:00:00,0.5,-2.0,30.23,NE,41,0.0,0.0,89,0.00,,---,0.00,VWS V14.00,2013-03-03 15:00:00,
2013-03-03 09:05:00,1.5,-1.0,30.23,NE,41,0.0,0.0,89,0.00,,---,0.00,VWS V14.00,2013-03-03 15:05:00,
2013-03-03 09:10:00,2.6,0.1,30.23,NE,41,0.0,0.0,89,0.00,,---,0.00,VWS V14.00,2013-03-03 15:10:00,
2013-03-03 09:15:00,3.7,1.4,30.23,NE,41,0.0,0.0,90,0.00,,---,0.00,VWS V14.00,2013-03-03 15:15:00,
2013-03-03 09:20:00,5.4,3.6,30.23,North,5,0.0,2.0,92,0.00,,---,0.00,VWS V14.00,2013-03-03 15:20:00,
2013-03-03 09:25:00,7.9,6.1,30.23,North,5,0.0,2.0,92,0.00,,---,0.00,VWS V14.00,2013-03-03 15:25:00,
2013-03-03 09:31:00,9.5,7.2,30.22,North,5,0.0,2.0,90,0.00,,---,0.00,VWS V14.00,2013-03-03 15:31:00,
2013-03-03 09:36:00,11.1,8.5,30.23,NNE,15,3.0,3.0,89,0.00,,---,0.00,VWS V14.00,2013-03-03 15:36:00,
2013-03-03 09:41:00,13.2,9.6,30.23,NNE,30,0.0,4.0,85,0.00,,---,0.00,VWS V14.00,2013-03-03 15:41:00,
2013-03-03 09:46:00,14.6,9.6,30.22,NNE,13,4.0,4.0,80,0.00,,---,0.00,VWS V14.00,2013-03-03 15:46:00,
2013-03-03 09:51:00,15.8,9.3,30.22,NNE,22,0.0,3.0,75,0.00,,---,0.00,VWS V14.00,2013-03-03 15:51:00,
2013-03-03 09:56:00,16.7,8.9,30.22,ENE,59,2.0,7.0,71,0.00,,---,0.00,VWS V14.00,2013-03-03 15:56:00,
2013-03-03 10:01:00,17.2,8.1,30.22,WNW,286,0.0,7.0,67,0.00,,---,0.00,VWS V14.00,2013-03-03 16:01:00,
2013-03-03 10:06:00,17.7,7.9,30.21,SW,217,0.0,4.0,65,0.00,,---,0.00,VWS V14.00,2013-03-03 16:06:00,
2013-03-03 10:11:00,18.2,8.4,30.21,NNE,24,7.0,8.0,65,0.00,,---,0.00,VWS V14.00,2013-03-03 16:11:00,
2013-03-03 10:16:00,18.5,7.7,30.21,NE,39,0.0,8.0,62,0.00,,---,0.00,VWS V14.00,2013-03-03 16:16:00,
2013-03-03 10:21:00,18.8,7.9,30.21,NNE,14,6.0,6.0,62,0.00,,---,0.00,VWS V14.00,2013-03-03 16:21:00,
2013-03-03 10:26:00,19.1,7.9,30.21,NE,51,0.0,6.0,61,0.00,,---,0.00,VWS V14.00,2013-03-03 16:26:00,
2013-03-03 10:30:00,19.4,9.2,30.20,NW,319,0.0,6.0,64,0.00,,---,0.00,VWS V14.00,2013-03-03 16:30:00,
2013-03-03 10:36:00,19.9,9.0,30.20,NE,37,2.0,4.0,62,0.00,,---,0.00,VWS V14.00,2013-03-03 16:36:00,
2013-03-03 10:41:00,20.4,9.1,30.20,NNE,23,0.0,5.0,61,0.00,,---,0.00,VWS V14.00,2013-03-03 16:41:00,
2013-03-03 10:46:00,20.7,8.6,30.20,NE,44,1.0,5.0,59,0.00,,---,0.00,VWS V14.00,2013-03-03 16:46:00,
2013-03-03 10:51:00,20.9,8.8,30.20,NW,309,3.0,3.0,59,0.00,,---,0.00,VWS V14.00,2013-03-03 16:51:00,
2013-03-03 10:55:00,21.5,9.0,30.20,SSW,197,0.0,5.0,58,0.00,,---,0.00,VWS V14.00,2013-03-03 16:55:00,
2013-03-03 11:00:00,22.0,9.1,30.20,WNW,294,4.0,6.0,57,0.00,,---,0.00,VWS V14.00,2013-03-03 17:00:00,
2013-03-03 11:05:00,22.6,9.7,30.20,WNW,283,0.0,4.0,57,0.00,,---,0.00,VWS V14.00,2013-03-03 17:05:00,
2013-03-03 11:10:00,23.1,10.1,30.20,NW,314,3.0,4.0,57,0.00,,---,0.00,VWS V14.00,2013-03-03 17:10:00,
2013-03-03 11:15:00,23.5,10.1,30.20,NNE,24,1.0,6.0,56,0.00,,---,0.00,VWS V14.00,2013-03-03 17:15:00,
2013-03-03 11:20:00,23.6,9.4,30.20,NE,53,4.0,5.0,54,0.00,,---,0.00,VWS V14.00,2013-03-03 17:20:00,
2013-03-03 11:25:00,23.6,9.8,30.19,NNE,26,0.0,5.0,55,0.00,,---,0.00,VWS V14.00,2013-03-03 17:25:00,
2013-03-03 11:30:00,24.1,9.5,30.19,NNE,15,0.0,5.0,53,0.00,,---,0.00,VWS V14.00,2013-03-03 17:30:00,
2013-03-03 11:35:00,24.4,9.7,30.19,NNE,32,0.0,3.0,53,0.00,,---,0.00,VWS V14.00,2013-03-03 17:35:00,
2013-03-03 11:40:00,24.7,10.0,30.19,NNW,340,0.0,3.0,53,0.00,,---,0.00,VWS V14.00,2013-03-03 17:40:00,
2013-03-03 11:45:00,25.3,11.0,30.19,ENE,61,2.0,4.0,54,0.00,,---,0.00,VWS V14.00,2013-03-03 17:45:00,
2013-03-03 11:50:00,25.9,10.7,30.18,NE,51,0.0,4.0,52,0.00,,---,0.00,VWS V14.00,2013-03-03 17:50:00,
2013-03-03 11:55:00,26.5,10.8,30.18,SW,229,0.0,4.0,51,0.00,,---,0.00,VWS V14.00,2013-03-03 17:55:00,
2013-03-03 12:00:00,26.9,10.3,30.18,North,9,0.0,4.0,49,0.00,,---,0.00,VWS V14.00,2013-03-03 18:00:00,
2013-03-03 12:05:00,27.0,9.5,30.18,NW,319,0.0,4.0,47,0.00,,---,0.00,VWS V14.00,2013-03-03 18:05:00,
2013-03-03 12:10:00,27.2,11.0,30.18,WSW,240,0.0,5.0,50,0.00,,---,0.00,VWS V14.00,2013-03-03 18:10:00,
2013-03-03 12:15:00,27.3,10.7,30.18,West,276,3.0,6.0,49,0.00,,---,0.00,VWS V14.00,2013-03-03 18:15:00,
2013-03-03 12:20:00,27.1,11.4,30.18,WNW,300,2.0,7.0,51,0.00,,---,0.00,VWS V14.00,2013-03-03 18:20:00,
2013-03-03 12:25:00,26.8,10.2,30.17,SSW,213,1.0,7.0,49,0.00,,---,0.00,VWS V14.00,2013-03-03 18:25:00,
2013-03-03 12:30:00,26.9,11.2,30.17,SW,225,2.0,7.0,51,0.00,,---,0.00,VWS V14.00,2013-03-03 18:30:00,
2013-03-03 12:35:00,27.4,11.2,30.17,SW,230,6.0,7.0,50,0.00,,---,0.00,VWS V14.00,2013-03-03 18:35:00,
2013-03-03 12:40:00,27.3,11.1,30.16,NW,315,0.0,7.0,50,0.00,,---,0.00,VWS V14.00,2013-03-03 18:40:00,
2013-03-03 12:45:00,27.5,11.8,30.16,ENE,74,3.0,7.0,51,0.00,,---,0.00,VWS V14.00,2013-03-03 18:45:00,
2013-03-03 12:50:00,27.7,11.0,30.16,SW,223,1.0,4.0,49,0.00,,---,0.00,VWS V14.00,2013-03-03 18:50:00,
2013-03-03 12:55:00,27.8,11.1,30.16,West,259,2.0,6.0,49,0.00,,---,0.00,VWS V14.00,2013-03-03 18:55:00,
2013-03-03 13:00:00,27.9,10.8,30.16,WSW,246,2.0,6.0,48,0.00,,---,0.00,VWS V14.00,2013-03-03 19:00:00,
2013-03-03 13:05:00,27.9,9.3,30.15,WSW,252,4.0,6.0,45,0.00,,---,0.00,VWS V14.00,2013-03-03 19:05:00,
2013-03-03 13:10:00,27.9,7.8,30.15,NE,37,0.0,6.0,42,0.00,,---,0.00,VWS V14.00,2013-03-03 19:10:00,
2013-03-03 13:15:00,28.4,8.8,30.15,WSW,256,0.0,6.0,43,0.00,,---,0.00,VWS V14.00,2013-03-03 19:15:00,
2013-03-03 13:20:00,28.6,8.9,30.16,NNE,33,2.0,4.0,43,0.00,,---,0.00,VWS V14.00,2013-03-03 19:20:00,
2013-03-03 13:25:00,28.8,10.1,30.15,WSW,237,4.0,4.0,45,0.00,,---,0.00,VWS V14.00,2013-03-03 19:25:00,
2013-03-03 13:30:00,29.1,9.4,30.15,West,271,2.0,4.0,43,0.00,,---,0.00,VWS V14.00,2013-03-03 19:30:00,
2013-03-03 13:35:00,29.3,8.0,30.15,NE,36,0.0,4.0,40,0.00,,---,0.00,VWS V14.00,2013-03-03 19:35:00,
2013-03-03 13:40:00,29.5,9.2,30.15,West,266,0.0,5.0,42,0.00,,---,0.00,VWS V14.00,2013-03-03 19:40:00,
2013-03-03 13:45:00,29.6,9.9,30.15,West,275,1.0,5.0,43,0.00,,---,0.00,VWS V14.00,2013-03-03 19:45:00,
2013-03-03 13:50:00,29.4,8.1,30.15,SW,232,3.0,5.0,40,0.00,,---,0.00,VWS V14.00,2013-03-03 19:50:00,
2013-03-03 13:55:00,29.2,8.4,30.15,West,259,3.0,5.0,41,0.00,,---,0.00,VWS V14.00,2013-03-03 19:55:00,
2013-03-03 14:00:00,28.9,9.2,30.14,SW,232,4.0,5.0,43,0.00,,---,0.00,VWS V14.00,2013-03-03 20:00:00,
2013-03-03 14:05:00,28.9,8.2,30.15,NW,316,3.0,3.0,41,0.00,,---,0.00,VWS V14.00,2013-03-03 20:05:00,
2013-03-03 14:10:00,29.0,9.3,30.14,NNE,18,3.0,6.0,43,0.00,,---,0.00,VWS V14.00,2013-03-03 20:10:00,
2013-03-03 14:15:00,29.0,7.7,30.14,West,267,2.0,6.0,40,0.00,,---,0.00,VWS V14.00,2013-03-03 20:15:00,
2013-03-03 14:20:00,29.4,9.2,30.14,West,281,0.0,2.0,42,0.00,,---,0.00,VWS V14.00,2013-03-03 20:20:00,
2013-03-03 14:25:00,29.7,8.4,30.14,WNW,285,0.0,5.0,40,0.00,,---,0.00,VWS V14.00,2013-03-03 20:25:00,
2013-03-03 14:30:00,30.2,10.4,30.14,WSW,248,5.0,5.0,43,0.00,,---,0.00,VWS V14.00,2013-03-03 20:30:00,
2013-03-03 14:35:00,30.4,10.6,30.14,NNE,20,1.0,3.0,43,0.00,,---,0.00,VWS V14.00,2013-03-03 20:35:00,
2013-03-03 14:40:00,30.5,9.6,30.14,West,269,1.0,6.0,41,0.00,,---,0.00,VWS V14.00,2013-03-03 20:40:00,
2013-03-03 14:45:00,30.4,9.0,30.14,NE,42,1.0,6.0,40,0.00,,---,0.00,VWS V14.00,2013-03-03 20:45:00,
2013-03-03 14:50:00,30.2,10.4,30.14,NW,321,0.0,4.0,43,0.00,,---,0.00,VWS V14.00,2013-03-03 20:50:00,
2013-03-03 14:55:00,30.1,9.8,30.14,NNE,21,0.0,4.0,42,0.00,,---,0.00,VWS V14.00,2013-03-03 20:55:00,
2013-03-03 15:00:00,30.2,8.8,30.13,East,80,3.0,6.0,40,0.00,,---,0.00,VWS V14.00,2013-03-03 21:00:00,
2013-03-03 15:05:00,30.3,8.3,30.13,NNE,26,4.0,4.0,39,0.00,,---,0.00,VWS V14.00,2013-03-03 21:05:00,
2013-03-03 15:10:00,30.2,8.8,30.13,ENE,71,1.0,6.0,40,0.00,,---,0.00,VWS V14.00,2013-03-03 21:10:00,
2013-03-03 15:15:00,30.3,8.3,30.13,NNE,21,1.0,6.0,39,0.00,,---,0.00,VWS V14.00,2013-03-03 21:15:00,
2013-03-03 15:20:00,30.2,7.7,30.14,WNW,288,0.0,5.0,38,0.00,,---,0.00,VWS V14.00,2013-03-03 21:20:00,
2013-03-03 15:25:00,30.2,7.7,30.13,NE,41,1.0,6.0,38,0.00,,---,0.00,VWS V14.00,2013-03-03 21:25:00,
2013-03-03 15:31:00,30.2,8.2,30.14,North,351,5.0,6.0,39,0.00,,---,0.00,VWS V14.00,2013-03-03 21:31:00,
2013-03-03 15:36:00,30.2,8.2,30.13,North,355,0.0,2.0,39,0.00,,---,0.00,VWS V14.00,2013-03-03 21:36:00,
2013-03-03 15:41:00,30.0,7.5,30.13,NE,36,0.0,4.0,38,0.00,,---,0.00,VWS V14.00,2013-03-03 21:41:00,
2013-03-03 15:46:00,29.9,8.5,30.13,NE,44,1.0,5.0,40,0.00,,---,0.00,VWS V14.00,2013-03-03 21:46:00,
2013-03-03 15:51:00,29.9,8.0,30.13,WNW,300,0.0,3.0,39,0.00,,---,0.00,VWS V14.00,2013-03-03 21:51:00,
2013-03-03 15:56:00,29.9,8.5,30.13,South,175,3.0,4.0,40,0.00,,---,0.00,VWS V14.00,2013-03-03 21:56:00,
2013-03-03 16:01:00,29.9,8.0,30.13,NNE,22,2.0,4.0,39,0.00,,---,0.00,VWS V14.00,2013-03-03 22:01:00,
2013-03-03 16:06:00,29.8,8.4,30.13,NNE,30,0.0,2.0,40,0.00,,---,0.00,VWS V14.00,2013-03-03 22:06:00,
2013-03-03 16:11:00,29.7,9.4,30.13,North,355,0.0,3.0,42,0.00,,---,0.00,VWS V14.00,2013-03-03 22:11:00,
2013-03-03 16:16:00,29.8,10.1,30.13,North,355,1.0,3.0,43,0.00,,---,0.00,VWS V14.00,2013-03-03 22:16:00,
2013-03-03 16:21:00,29.6,8.8,30.13,North,360,0.0,2.0,41,0.00,,---,0.00,VWS V14.00,2013-03-03 22:21:00,
2013-03-03 16:26:00,29.6,8.8,30.13,North,360,1.0,2.0,41,0.00,,---,0.00,VWS V14.00,2013-03-03 22:26:00,
2013-03-03 16:31:00,29.4,8.1,30.13,NNE,17,2.0,4.0,40,0.00,,---,0.00,VWS V14.00,2013-03-03 22:31:00,
2013-03-03 16:36:00,29.4,8.6,30.13,NNW,348,0.0,4.0,41,0.00,,---,0.00,VWS V14.00,2013-03-03 22:36:00,
2013-03-03 16:41:00,29.3,8.5,30.13,North,10,0.0,4.0,41,0.00,,---,0.00,VWS V14.00,2013-03-03 22:41:00,
2013-03-03 16:46:00,29.0,8.8,30.13,North,10,0.0,4.0,42,0.00,,---,0.00,VWS V14.00,2013-03-03 22:46:00,
2013-03-03 16:51:00,28.8,7.5,30.13,NE,35,2.0,5.0,40,0.00,,---,0.00,VWS V14.00,2013-03-03 22:51:00,
2013-03-03 16:56:00,28.5,8.9,30.13,North,9,0.0,5.0,43,0.00,,---,0.00,VWS V14.00,2013-03-03 22:56:00,
2013-03-03 17:01:00,28.3,7.6,30.13,North,5,0.0,5.0,41,0.00,,---,0.00,VWS V14.00,2013-03-03 23:01:00,
2013-03-03 17:06:00,28.0,7.4,30.13,NNE,12,4.0,4.0,41,0.00,,---,0.00,VWS V14.00,2013-03-03 23:06:00,
2013-03-03 17:11:00,27.8,7.2,30.13,NNW,348,0.0,4.0,41,0.00,,---,0.00,VWS V14.00,2013-03-03 23:11:00,
2013-03-03 17:16:00,27.6,8.0,30.13,NNW,348,0.0,4.0,43,0.00,,---,0.00,VWS V14.00,2013-03-03 23:16:00,
2013-03-03 17:21:00,27.4,6.8,30.13,North,355,0.0,3.0,41,0.00,,---,0.00,VWS V14.00,2013-03-03 23:21:00,
2013-03-03 17:26:00,27.2,7.7,30.13,North,355,0.0,3.0,43,0.00,,---,0.00,VWS V14.00,2013-03-03 23:26:00,
2013-03-03 17:31:00,27.0,8.0,30.13,North,355,0.0,3.0,44,0.00,,---,0.00,VWS V14.00,2013-03-03 23:31:00,
2013-03-03 17:36:00,26.7,10.1,30.13,North,355,0.0,0.0,49,0.00,,---,0.00,VWS V14.00,2013-03-03 23:36:00,
2013-03-03 17:41:00,26.3,10.6,30.13,North,355,0.0,0.0,51,0.00,,---,0.00,VWS V14.00,2013-03-03 23:41:00,
2013-03-03 17:46:00,25.9,11.1,30.13,North,355,0.0,0.0,53,0.00,,---,0.00,VWS V14.00,2013-03-03 23:46:00,
2013-03-03 17:51:00,25.3,11.8,30.13,North,355,0.0,0.0,56,0.00,,---,0.00,VWS V14.00,2013-03-03 23:51:00,
2013-03-03 17:56:00,24.8,10.9,30.14,North,355,0.0,0.0,55,0.00,,---,0.00,VWS V14.00,2013-03-03 23:56:00,
2013-03-03 18:01:00,24.3,11.3,30.14,North,355,0.0,0.0,57,0.00,,---,0.00,VWS V14.00,2013-03-04 00:01:00,
2013-03-03 18:06:00,23.6,12.5,30.14,North,355,0.0,0.0,62,0.00,,---,0.00,VWS V14.00,2013-03-04 00:06:00,
2013-03-03 18:11:00,23.1,11.3,30.15,North,355,0.0,0.0,60,0.00,,---,0.00,VWS V14.00,2013-03-04 00:11:00,
2013-03-03 18:16:00,22.6,10.8,30.15,North,355,0.0,0.0,60,0.00,,---,0.00,VWS V14.00,2013-03-04 00:16:00,
2013-03-03 18:21:00,22.2,10.8,30.15,North,355,0.0,0.0,61,0.00,,---,0.00,VWS V14.00,2013-03-04 00:21:00,
2013-03-03 18:26:00,21.7,11.1,30.15,North,355,0.0,0.0,63,0.00,,---,0.00,VWS V14.00,2013-03-04 00:26:00,
2013-03-03 18:31:00,21.2,10.6,30.15,North,355,0.0,0.0,63,0.00,,---,0.00,VWS V14.00,2013-03-04 00:31:00,
2013-03-03 18:36:00,20.7,11.5,30.15,North,355,0.0,0.0,67,0.00,,---,0.00,VWS V14.00,2013-03-04 00:36:00,
2013-03-03 18:41:00,20.3,11.1,30.15,North,355,0.0,0.0,67,0.00,,---,0.00,VWS V14.00,2013-03-04 00:41:00,
2013-03-03 18:46:00,19.8,9.6,30.15,North,355,0.0,2.0,64,0.00,,---,0.00,VWS V14.00,2013-03-04 00:46:00,
2013-03-03 18:51:00,19.9,9.7,30.15,NNE,21,0.0,3.0,64,0.00,,---,0.00,VWS V14.00,2013-03-04 00:51:00,
2013-03-03 18:56:00,20.0,11.1,30.15,NNE,21,0.0,3.0,68,0.00,,---,0.00,VWS V14.00,2013-03-04 00:56:00,
2013-03-03 19:01:00,19.9,10.1,30.15,NNE,21,0.0,3.0,65,0.00,,---,0.00,VWS V14.00,2013-03-04 01:01:00,
2013-03-03 19:06:00,19.8,9.6,30.15,NNE,21,0.0,0.0,64,0.00,,---,0.00,VWS V14.00,2013-03-04 01:06:00,
2013-03-03 19:11:00,19.7,9.9,30.15,NNE,21,0.0,1.0,65,0.00,,---,0.00,VWS V14.00,2013-03-04 01:11:00,
2013-03-03 19:16:00,19.7,10.2,30.15,NNE,20,0.0,2.0,66,0.00,,---,0.00,VWS V14.00,2013-03-04 01:16:00,
2013-03-03 19:21:00,19.4,10.6,30.15,NNE,20,0.0,1.0,68,0.00,,---,0.00,VWS V14.00,2013-03-04 01:21:00,
2013-03-03 19:26:00,19.1,10.3,30.15,NNE,20,0.0,2.0,68,0.00,,---,0.00,VWS V14.00,2013-03-04 01:26:00,
2013-03-03 19:31:00,18.8,10.3,30.15,NNE,20,0.0,2.0,69,0.00,,---,0.00,VWS V14.00,2013-03-04 01:31:00,
2013-03-03 19:36:00,18.4,10.3,30.15,NNE,20,0.0,2.0,70,0.00,,---,0.00,VWS V14.00,2013-03-04 01:36:00,
2013-03-03 19:41:00,18.1,10.3,30.14,NNE,20,0.0,2.0,71,0.00,,---,0.00,VWS V14.00,2013-03-04 01:41:00,
2013-03-03 19:46:00,17.9,10.4,30.15,NNE,20,0.0,2.0,72,0.00,,---,0.00,VWS V14.00,2013-03-04 01:46:00,
2013-03-03 19:51:00,17.7,9.9,30.15,NNE,20,0.0,0.0,71,0.00,,---,0.00,VWS V14.00,2013-03-04 01:51:00,
2013-03-03 19:56:00,17.5,10.0,30.15,NNE,20,0.0,2.0,72,0.00,,---,0.00,VWS V14.00,2013-03-04 01:56:00,
2013-03-03 20:01:00,17.4,9.9,30.15,NNE,20,0.0,2.0,72,0.00,,---,0.00,VWS V14.00,2013-03-04 02:01:00,
2013-03-03 20:06:00,17.2,10.1,30.15,NNE,20,0.0,0.0,73,0.00,,---,0.00,VWS V14.00,2013-03-04 02:06:00,
2013-03-03 20:11:00,17.0,10.2,30.15,NNE,20,0.0,0.0,74,0.00,,---,0.00,VWS V14.00,2013-03-04 02:11:00,
2013-03-03 20:16:00,16.9,10.1,30.15,NNE,20,0.0,2.0,74,0.00,,---,0.00,VWS V14.00,2013-03-04 02:16:00,
2013-03-03 20:21:00,16.7,10.2,30.16,NNE,20,0.0,0.0,75,0.00,,---,0.00,VWS V14.00,2013-03-04 02:21:00,
2013-03-03 20:26:00,16.5,10.0,30.16,NNE,20,0.0,0.0,75,0.00,,---,0.00,VWS V14.00,2013-03-04 02:26:00,
2013-03-03 20:31:00,16.2,10.0,30.16,NNE,20,0.0,0.0,76,0.00,,---,0.00,VWS V14.00,2013-03-04 02:31:00,
2013-03-03 20:36:00,16.0,9.8,30.16,NNE,20,0.0,0.0,76,0.00,,---,0.00,VWS V14.00,2013-03-04 02:36:00,
2013-03-03 20:41:00,15.7,9.8,30.16,NNE,20,0.0,0.0,77,0.00,,---,0.00,VWS V14.00,2013-03-04 02:41:00,
2013-03-03 20:47:00,15.2,9.3,30.16,NNE,20,0.0,0.0,77,0.00,,---,0.00,VWS V14.00,2013-03-04 02:47:00,
2013-03-03 20:52:00,14.8,9.2,30.16,NNE,20,0.0,0.0,78,0.00,,---,0.00,VWS V14.00,2013-03-04 02:52:00,
2013-03-03 20:57:00,14.6,9.3,30.16,NNE,20,0.0,0.0,79,0.00,,---,0.00,VWS V14.00,2013-03-04 02:57:00,
2013-03-03 21:02:00,14.4,9.4,30.16,NNE,20,0.0,0.0,80,0.00,,---,0.00,VWS V14.00,2013-03-04 03:02:00,
2013-03-03 21:07:00,14.2,9.2,30.17,NNE,20,0.0,0.0,80,0.00,,---,0.00,VWS V14.00,2013-03-04 03:07:00,
2013-03-03 21:12:00,14.0,9.0,30.16,NNE,20,0.0,0.0,80,0.00,,---,0.00,VWS V14.00,2013-03-04 03:12:00,
2013-03-03 21:18:00,13.7,9.0,30.16,NNE,20,0.0,0.0,81,0.00,,---,0.00,VWS V14.00,2013-03-04 03:18:00,
2013-03-03 21:23:00,13.6,9.1,30.16,NNE,20,0.0,0.0,82,0.00,,---,0.00,VWS V14.00,2013-03-04 03:23:00,
2013-03-03 21:28:00,13.5,9.0,30.16,NNE,20,0.0,0.0,82,0.00,,---,0.00,VWS V14.00,2013-03-04 03:28:00,
2013-03-03 21:33:00,13.4,8.9,30.16,NNE,20,0.0,0.0,82,0.00,,---,0.00,VWS V14.00,2013-03-04 03:33:00,
2013-03-03 21:38:00,13.4,8.7,30.16,NNE,20,0.0,0.0,81,0.00,,---,0.00,VWS V14.00,2013-03-04 03:38:00,
2013-03-03 21:43:00,12.9,7.6,30.16,NNE,20,0.0,0.0,79,0.00,,---,0.00,VWS V14.00,2013-03-04 03:43:00,
2013-03-03 21:48:00,12.5,7.5,30.16,NNE,20,0.0,0.0,80,0.00,,---,0.00,VWS V14.00,2013-03-04 03:48:00,
2013-03-03 21:53:00,12.2,7.5,30.16,NNE,20,0.0,0.0,81,0.00,,---,0.00,VWS V14.00,2013-03-04 03:53:00,
2013-03-03 21:58:00,12.1,7.4,30.16,NNE,20,0.0,0.0,81,0.00,,---,0.00,VWS V14.00,2013-03-04 03:58:00,
2013-03-03 22:03:00,11.7,7.0,30.16,NNE,20,0.0,0.0,81,0.00,,---,0.00,VWS V14.00,2013-03-04 04:03:00,
2013-03-03 22:08:00,11.4,7.0,30.16,NNE,20,0.0,0.0,82,0.00,,---,0.00,VWS V14.00,2013-03-04 04:08:00,
2013-03-03 22:13:00,11.2,7.1,30.16,NNE,20,0.0,0.0,83,0.00,,---,0.00,VWS V14.00,2013-03-04 04:13:00,
2013-03-03 22:18:00,10.9,6.8,30.16,NNE,20,0.0,0.0,83,0.00,,---,0.00,VWS V14.00,2013-03-04 04:18:00,
2013-03-03 22:23:00,10.7,6.8,30.16,NNE,20,0.0,0.0,84,0.00,,---,0.00,VWS V14.00,2013-03-04 04:23:00,
2013-03-03 22:28:00,10.5,6.6,30.16,NNE,20,0.0,0.0,84,0.00,,---,0.00,VWS V14.00,2013-03-04 04:28:00,
2013-03-03 22:33:00,10.3,6.4,30.16,NNE,20,0.0,0.0,84,0.00,,---,0.00,VWS V14.00,2013-03-04 04:33:00,
2013-03-03 22:38:00,10.0,6.1,30.16,NNE,20,0.0,0.0,84,0.00,,---,0.00,VWS V14.00,2013-03-04 04:38:00,
2013-03-03 22:43:00,9.8,5.9,30.16,NNE,20,0.0,0.0,84,0.00,,---,0.00,VWS V14.00,2013-03-04 04:43:00,
2013-03-03 22:48:00,9.6,5.8,30.17,NNE,20,0.0,0.0,84,0.00,,---,0.00,VWS V14.00,2013-03-04 04:48:00,
2013-03-03 22:53:00,9.5,5.7,30.17,NNE,20,0.0,0.0,84,0.00,,---,0.00,VWS V14.00,2013-03-04 04:53:00,
2013-03-03 22:58:00,9.3,5.4,30.17,NNE,20,0.0,0.0,84,0.00,,---,0.00,VWS V14.00,2013-03-04 04:58:00,
2013-03-03 23:00:00,9.2,5.4,30.17,NNE,20,0.0,0.0,84,0.00,,---,0.00,VWS V14.00,2013-03-04 05:00:00,
2013-03-03 23:05:00,9.0,5.2,30.16,NNE,20,0.0,0.0,84,0.00,,---,0.00,VWS V14.00,2013-03-04 05:05:00,
2013-03-03 23:10:00,8.6,4.8,30.16,NNE,20,0.0,0.0,84,0.00,,---,0.00,VWS V14.00,2013-03-04 05:10:00,
2013-03-03 23:15:00,8.3,4.2,30.16,NNE,20,0.0,0.0,83,0.00,,---,0.00,VWS V14.00,2013-03-04 05:15:00,
2013-03-03 23:20:00,8.1,4.0,30.16,NNE,20,0.0,0.0,83,0.00,,---,0.00,VWS V14.00,2013-03-04 05:20:00,
2013-03-03 23:25:00,7.8,4.0,30.16,NNE,20,0.0,0.0,84,0.00,,---,0.00,VWS V14.00,2013-03-04 05:25:00,
2013-03-03 23:30:00,7.7,3.9,30.16,NNE,20,0.0,0.0,84,0.00,,---,0.00,VWS V14.00,2013-03-04 05:30:00,
2013-03-03 23:35:00,7.5,3.7,30.16,NNE,20,0.0,0.0,84,0.00,,---,0.00,VWS V14.00,2013-03-04 05:35:00,
2013-03-03 23:40:00,7.3,3.5,30.16,NNE,20,0.0,0.0,84,0.00,,---,0.00,VWS V14.00,2013-03-04 05:40:00,
2013-03-03 23:45:00,7.2,3.4,30.16,NNE,20,0.0,0.0,84,0.00,,---,0.00,VWS V14.00,2013-03-04 05:45:00,
2013-03-03 23:50:00,7.1,3.5,30.16,NNE,20,0.0,0.0,85,0.00,,---,0.00,VWS V14.00,2013-03-04 05:50:00,
2013-03-03 23:55:00,7.0,3.5,30.16,NNE,20,0.0,0.0,85,0.00,,---,0.00,VWS V14.00,2013-03-04 05:55:00,